Location: Karcze
(52.0945°N, 22.4786°E)
Time: 17:47:56
(UTC+00:00)

A-11 Canister half - Pass Details

Date: 03 August 2021
Orbit: 1515 x 1685 km, 47.2° (Epoch: 20 September)

Event Time Altitude Azimuth Distance (km) Brightness Sun altitude
Rises 22:20:07 0° 286° (WNW) 4,922 11.9 -20.6°
Reaches altitude 10° 22:24:34 10° 270° (W) 3,944 11.2 -20.6°
Maximum altitude 22:30:43 18° 232° (SW) 3,328 10.4 -20.6°
Enters shadow 22:32:29 17° 219° (SW) 3,383 10.4 -20.7°
Drops below altitude 10° 22:36:52 10° 194° (SSW) 3,937 - -20.7°
Sets 22:41:21 0° 177° (S) 4,908 - -20.7°
